User: anonymous   Login
Location: Unspecified
(0.0000°N, 0.0000°E)
Time: 13:47:48
(UTC+00:00)
Language:

UWE-3 - Orbit

View from above orbital plane
View from above orbital plane
View from above satellite
View from above satellite

Ground track
Ground track

The orbit data is extracted from the following two-line orbital elements,

1 39446U 13066AG  18017.54715446  .00000215  00000-0  35555-4 0  9990
2 39446  97.6066  47.5289 0069095 307.6984  51.7975 14.78131379222861
Epoch (UTC): 17 January 2018 13:07:54
Eccentricity: 0.0069095
inclination: 97.6066°
perigee height: 587 km
apogee height: 683 km
right ascension of ascending node: 47.5289°
argument of perigee: 307.6984°
revolutions per day: 14.78131379
mean anomaly at epoch: 51.7975°
orbit number at epoch: 22286

The dashed part of the orbit path shows where the satellite is in the earth's shadow,  

DLR